Effective Sunday, March 17, 2024, the National Weather Service National Data Buoy Center will discontinue its Dial-A-Buoy Interactive Voice Response system. For more information, see Service Change Notice 24-06 (PDF).

Station BHBM3 - 8443970 - Boston, MA Image indicating link to RSS feed of recent meteorological observations for station BHBM3


Conditions at BHBM3 as of
(1:00 am EST)
0600 GMT on 02/23/2024:
     

Click on the graph icon in the table below to see a time series plot of the last five days of that observation.

5-day plot - Atmospheric Pressure Atmospheric Pressure (PRES):29.69 in
5-day plot - Pressure Tendency Pressure Tendency (PTDY):-0.06 in ( Falling )
5-day plot - Air Temperature Air Temperature (ATMP): 37.0 °F
NOS Water Level Observation Network Water Level
Previous observations
TIME
(EST)
5-day plot - Wind Direction
WDIR
 
5-day plot - Wind Speed
WSPD
kts
5-day plot - Wind Gust
GST
kts
5-day plot - Wave Height
WVHT
ft
5-day plot - Dominant Wave Period
DPD
sec
5-day plot - Average Wave Period
APD
sec
5-day plot - Mean Wave Direction
MWD
 
5-day plot - Atmospheric Pressure
PRES
in
5-day plot - Pressure Tendency
PTDY
in
5-day plot - Air Temperature
ATMP
°F
5-day plot - Water Temperature
WTMP
°F
5-day plot - Dew Point
DEWP
°F
5-day plot - Salinity
SAL
psu
5-day plot - Visibility
VIS
nmi
5-day plot - Tide (above MLLW)
TIDE
ft
2024-02-23 12:54 am-------29.70- 37.0-----
2024-02-23 12:48 am-------29.70- 37.0-----
2024-02-23 12:42 am-------29.70- 36.9-----
2024-02-23 12:36 am-------29.70- 36.9-----
2024-02-23 12:30 am-------29.70- 36.9-----
2024-02-23 12:24 am-------29.71- 36.7-----
2024-02-23 12:18 am-------29.71- 36.7-----
2024-02-23 12:12 am-------29.71- 36.7-----
2024-02-23 12:06 am-------29.71- 36.9-----
2024-02-23 12:00 am-------29.71-0.07 36.9-----
2024-02-22 11:54 pm-------29.71- 36.9-----
2024-02-22 11:48 pm-------29.72- 36.9-----
2024-02-22 11:42 pm-------29.72- 37.2-----
2024-02-22 11:36 pm-------29.73- 37.2-----
2024-02-22 11:30 pm-------29.73- 37.2-----
2024-02-22 11:24 pm-------29.73- 37.0-----
2024-02-22 11:18 pm-------29.73- 37.2-----
2024-02-22 11:12 pm-------29.73- 37.2-----
2024-02-22 11:06 pm-------29.73- 37.0-----
2024-02-22 11:00 pm-------29.74-0.05 37.0-----
2024-02-22 10:54 pm-------29.74- 36.9-----
2024-02-22 10:48 pm-------29.74- 36.9-----
2024-02-22 10:42 pm-------29.74- 36.9-----
2024-02-22 10:36 pm-------29.74- 36.9-----
2024-02-22 10:30 pm-------29.75- 36.9-----
2024-02-22 10:24 pm-------29.75- 36.9-----
2024-02-22 10:18 pm-------29.75- 36.9-----
2024-02-22 10:12 pm-------29.75- 36.9-----
2024-02-22 10:06 pm-------29.75- 36.7-----
2024-02-22 10:00 pm-------29.75-0.05 36.9-----
2024-02-22 09:54 pm-------29.76- 36.9-----
2024-02-22 09:48 pm-------29.76- 36.9-----
2024-02-22 09:42 pm-------29.76- 36.7-----
2024-02-22 09:36 pm-------29.76- 36.7-----
2024-02-22 09:30 pm-------29.77- 36.5-----
2024-02-22 09:24 pm-------29.78- 36.5-----
2024-02-22 09:18 pm-------29.78- 36.3-----
2024-02-22 09:12 pm-------29.78- 36.5-----
2024-02-22 09:06 pm-------29.78- 36.3-----
2024-02-22 09:00 pm-------29.78-0.03 36.5-----
2024-02-22 08:54 pm-------29.78- 36.3-----
2024-02-22 08:48 pm-------29.78- 36.5-----
2024-02-22 08:42 pm-------29.78- 36.7-----
2024-02-22 08:36 pm-------29.78- 36.5-----
2024-02-22 08:30 pm-------29.78- 36.7-----
2024-02-22 08:24 pm-------29.78- 36.5-----
2024-02-22 08:18 pm-------29.78- 36.7-----
2024-02-22 08:12 pm-------29.78- 36.9-----
2024-02-22 08:06 pm-------29.78- 36.9-----
2024-02-22 08:00 pm-------29.78-0.02 36.9-----
2024-02-22 07:54 pm-------29.79- 37.0-----
2024-02-22 07:48 pm-------29.79- 37.2-----
2024-02-22 07:42 pm-------29.78- 37.4-----
2024-02-22 07:36 pm-------29.78- 37.4-----
2024-02-22 07:30 pm-------29.78- 37.6-----
2024-02-22 07:24 pm-------29.79- 37.8-----
2024-02-22 07:18 pm-------29.80- 37.9-----
2024-02-22 07:12 pm-------29.79- 37.9-----
2024-02-22 07:06 pm-------29.80- 38.1-----
2024-02-22 07:00 pm-------29.80-0.03 38.3-----
2024-02-22 06:54 pm-------29.80- 38.5-----
2024-02-22 06:48 pm-------29.80- 38.7-----
2024-02-22 06:42 pm-------29.80- 38.8-----
2024-02-22 06:36 pm-------29.80- 39.2-----
2024-02-22 06:30 pm-------29.80-------
2024-02-22 06:24 pm-------29.80-------
2024-02-22 06:00 pm-------29.80-0.05------
2024-02-22 05:54 pm-------29.80-------
2024-02-22 05:48 pm-------29.80- 40.1-----
2024-02-22 05:42 pm-------29.80- 40.3-----
2024-02-22 05:36 pm-------29.80- 41.0-----
2024-02-22 05:30 pm-------29.80- 41.2-----
2024-02-22 05:24 pm-------29.81- 41.4-----
2024-02-22 05:18 pm-------29.81- 41.5-----
2024-02-22 05:12 pm-------29.81- 41.5-----
2024-02-22 05:06 pm-------29.81- 41.9-----
2024-02-22 05:00 pm-------29.81-0.09 42.1-----
2024-02-22 04:54 pm-------29.81- 42.1-----
2024-02-22 04:48 pm-------29.81- 42.3-----
2024-02-22 04:42 pm-------29.81- 42.3-----
2024-02-22 04:36 pm-------29.81- 42.6-----
2024-02-22 04:30 pm-------29.82- 42.4-----
2024-02-22 04:24 pm-------29.82- 42.4-----
2024-02-22 04:18 pm-------29.82- 42.4-----
2024-02-22 04:12 pm-------29.82- 42.6-----
2024-02-22 04:06 pm-------29.83- 42.6-----
2024-02-22 04:00 pm-------29.83-0.08 42.8-----
2024-02-22 03:54 pm-------29.83- 43.0-----
2024-02-22 03:48 pm-------29.83- 43.3-----
2024-02-22 03:42 pm-------29.83- 42.8-----
2024-02-22 03:36 pm-------29.84- 42.6-----
2024-02-22 03:30 pm-------29.85- 42.6-----
2024-02-22 03:24 pm-------29.84- 42.4-----
2024-02-22 03:18 pm-------29.85- 42.8-----
2024-02-22 03:12 pm-------29.85- 42.3-----
2024-02-22 03:06 pm-------29.85- 41.5-----
2024-02-22 03:00 pm-------29.85-0.11 40.8-----
2024-02-22 02:54 pm-------29.85- 39.7-----
2024-02-22 02:48 pm-------29.86- 40.3-----
2024-02-22 02:42 pm-------29.86- 40.3-----
2024-02-22 02:36 pm-------29.86- 41.2-----
2024-02-22 02:30 pm-------29.87- 42.1-----
2024-02-22 02:24 pm-------29.88- 41.9-----
2024-02-22 02:18 pm-------29.89- 42.3-----
2024-02-22 02:12 pm-------29.89- 41.9-----
2024-02-22 02:06 pm-------29.89- 42.1-----
2024-02-22 02:00 pm-------29.89-0.12 42.3-----
2024-02-22 01:54 pm-------29.89- 41.2-----
2024-02-22 01:48 pm-------29.90- 40.6-----
2024-02-22 01:42 pm-------29.89- 41.4-----
2024-02-22 01:36 pm-------29.89- 41.0-----
2024-02-22 01:30 pm-------29.90- 40.8-----
2024-02-22 01:24 pm-------29.90- 40.1-----
2024-02-22 01:18 pm-------29.91- 40.6-----
2024-02-22 01:12 pm-------29.91- 40.1-----
2024-02-22 01:06 pm-------29.91- 39.9-----
2024-02-22 01:00 pm-------29.91-0.15 39.6-----
2024-02-22 12:54 pm-------29.92- 39.7-----
2024-02-22 12:48 pm-------29.92- 40.1-----
2024-02-22 12:42 pm-------29.93- 39.7-----
2024-02-22 12:36 pm-------29.94- 40.3-----
2024-02-22 12:30 pm-------29.94- 39.2-----
2024-02-22 12:24 pm-------29.94- 39.0-----
2024-02-22 12:18 pm-------29.95- 38.5-----
2024-02-22 12:12 pm-------29.96- 37.6-----
2024-02-22 12:06 pm-------29.96- 37.6-----
2024-02-22 12:00 pm-------29.96-0.13 37.8-----
2024-02-22 11:54 am-------29.97- 37.2-----
2024-02-22 11:48 am-------29.98- 37.4-----
2024-02-22 11:42 am-------29.98- 37.2-----
2024-02-22 11:36 am-------29.99- 36.9-----
2024-02-22 11:30 am-------30.00- 37.6-----
2024-02-22 11:24 am-------30.00- 36.9-----
2024-02-22 11:18 am-------30.01- 36.9-----
2024-02-22 11:12 am-------30.01- 36.3-----
2024-02-22 11:06 am-------30.01- 36.5-----
2024-02-22 11:00 am-------30.02-0.09 35.6-----
2024-02-22 10:54 am-------30.01- 35.2-----
2024-02-22 10:48 am-------30.02-------
2024-02-22 10:42 am-------30.02-------
2024-02-22 10:36 am-------30.03-------
2024-02-22 10:30 am-------30.03- 35.1-----
2024-02-22 10:24 am-------30.03- 34.7-----
2024-02-22 10:18 am-------30.04- 34.5-----
2024-02-22 10:12 am-------30.05- 34.5-----
2024-02-22 10:06 am-------30.05- 34.3-----
2024-02-22 10:00 am-------30.06-0.06 34.3-----
2024-02-22 09:54 am-------30.07- 33.8-----
2024-02-22 09:48 am-------30.07- 34.0-----
2024-02-22 09:42 am-------30.08- 32.9-----
2024-02-22 09:36 am-------30.08- 32.7-----
2024-02-22 09:30 am-------30.08- 32.9-----
2024-02-22 09:24 am-------30.08- 32.5-----
2024-02-22 09:18 am-------30.08- 32.7-----
2024-02-22 09:12 am-------30.09- 32.2-----
2024-02-22 09:06 am-------30.09- 32.0-----
2024-02-22 09:00 am-------30.09-0.05 32.0-----
2024-02-22 08:54 am-------30.10- 32.0-----
2024-02-22 08:48 am-------30.10- 32.7-----
2024-02-22 08:42 am-------30.11- 32.4-----
2024-02-22 08:36 am-------30.11- 32.5-----
2024-02-22 08:30 am-------30.10- 32.0-----
2024-02-22 08:24 am-------30.10- 31.5-----
2024-02-22 08:18 am-------30.10- 30.9-----
2024-02-22 08:12 am-------30.10- 30.4-----
2024-02-22 08:06 am-------30.11- 30.6-----
2024-02-22 08:00 am-------30.11-0.05 30.4-----
2024-02-22 07:54 am-------30.11- 30.4-----
2024-02-22 07:48 am-------30.12- 30.2-----
2024-02-22 07:42 am-------30.13- 30.0-----
2024-02-22 07:36 am-------30.13- 30.2-----
2024-02-22 07:30 am-------30.12- 30.0-----
2024-02-22 07:24 am-------30.12- 30.0-----
2024-02-22 07:18 am-------30.13- 29.8-----
2024-02-22 07:12 am-------30.12- 29.7-----
2024-02-22 07:06 am-------30.13- 29.3-----
2024-02-22 07:00 am-------30.13-0.05 29.3-----
2024-02-22 06:54 am-------30.13- 29.1-----
2024-02-22 06:48 am-------30.13- 29.5-----
2024-02-22 06:42 am-------30.13- 29.5-----
2024-02-22 06:36 am-------30.14- 29.7-----
2024-02-22 06:30 am-------30.15- 29.7-----
2024-02-22 06:24 am-------30.15- 30.0-----
2024-02-22 06:18 am-------30.15- 30.4-----
2024-02-22 06:12 am-------30.14- 30.2-----
2024-02-22 06:06 am-------30.14- 30.2-----
2024-02-22 06:00 am-------30.14-0.06------
2024-02-22 05:54 am-------30.15-------
2024-02-22 05:48 am-------30.15- 30.0-----
2024-02-22 05:42 am-------30.15- 30.0-----
2024-02-22 05:36 am-------30.15- 29.8-----
2024-02-22 05:30 am-------30.15- 30.0-----
2024-02-22 05:24 am-------30.16- 30.0-----
2024-02-22 05:18 am-------30.16- 30.4-----
2024-02-22 05:12 am-------30.16- 30.4-----
2024-02-22 05:06 am-------30.16- 30.4-----
2024-02-22 05:00 am-------30.16-0.07 30.6-----
2024-02-22 04:54 am-------30.16- 30.6-----
2024-02-22 04:48 am-------30.17- 30.7-----
2024-02-22 04:42 am-------30.17- 30.6-----
2024-02-22 04:36 am-------30.17- 30.6-----
2024-02-22 04:30 am-------30.17- 30.7-----
2024-02-22 04:24 am-------30.17- 30.6-----
2024-02-22 04:18 am-------30.17- 30.6-----
2024-02-22 04:12 am-------30.17- 30.6-----
2024-02-22 04:06 am-------30.17- 30.7-----
2024-02-22 04:00 am-------30.18-0.07 30.7-----
2024-02-22 03:54 am-------30.18- 30.7-----
2024-02-22 03:48 am-------30.18- 30.7-----
2024-02-22 03:42 am-------30.18- 30.6-----
2024-02-22 03:36 am-------30.18- 30.7-----
2024-02-22 03:30 am-------30.18- 30.7-----
2024-02-22 03:24 am-------30.19- 30.7-----
2024-02-22 03:18 am-------30.19- 30.9-----
2024-02-22 03:12 am-------30.19- 30.9-----
2024-02-22 03:06 am-------30.20- 30.9-----
2024-02-22 03:00 am-------30.20-0.06 30.9-----
2024-02-22 02:54 am-------30.20- 31.1-----
2024-02-22 02:48 am-------30.21- 31.1-----
2024-02-22 02:42 am-------30.21- 31.1-----
2024-02-22 02:36 am-------30.21- 31.1-----
2024-02-22 02:30 am-------30.22- 31.1-----
2024-02-22 02:24 am-------30.22- 31.1-----
2024-02-22 02:18 am-------30.22- 31.1-----
2024-02-22 02:12 am-------30.23- 31.1-----
2024-02-22 02:06 am-------30.23- 31.1-----
2024-02-22 02:00 am-------30.24-0.05 31.3-----
2024-02-22 01:54 am-------30.24- 31.1-----
2024-02-22 01:48 am-------30.24- 31.3-----
2024-02-22 01:42 am-------30.24- 31.1-----
2024-02-22 01:36 am-------30.24- 31.1-----
2024-02-22 01:30 am-------30.24- 31.3-----
2024-02-22 01:24 am-------30.24- 31.3-----
2024-02-22 01:18 am-------30.25- 31.3-----
2024-02-22 01:12 am-------30.25- 31.3-----
2024-02-22 01:06 am-------30.25- 31.3-----
2024-02-22 01:00 am-------30.25-0.06 31.3-----
2024-02-22 12:54 am-------30.25- 31.3-----